Home   Weather   Flensburg   Past weeks
Flag for Germany

Past Weather in Flensburg, Schleswig-Holstein, Germany — Yesterday and Last 2 Weeks

Now
63 °F

Broken clouds.


Feels Like: 63 °F
Forecast: 65 / 53 °F
Wind: 13 mph from East

Location: Soenderborg Lufthavn

Current Time: Sep 23, 2019 at 5:39:07 pm

Latest Report: Sep 23, 2019 at 4:20 pm


Visibility: N/A

Pressure: 29.95 "Hg

Humidity: 83%

Dew Point: 57 °F

Location of FlensburgLocation

Past Weather in Flensburg — Graph

°F

Flensburg Temperature Yesterday

Maximum temperature yesterday: 68 °F (at 2:20 pm)
Minimum temperature yesterday: 50 °F (at 7:20 am)
Average temperature yesterday: 60 °F

High & Low Weather Summary for the Past Weeks

 TemperatureHumidityPressure
High68 °F (Sep 21, 4:20 pm)100% (Sep 9, 7:51 am)30.51 "Hg (Sep 9, 7:51 am)
Low48 °F (Sep 19, 6:50 am)45% (Sep 16, 1:21 pm)29.83 "Hg (Sep 10, 3:50 am)
Average57 °F78%30.09 "Hg
* Reported Sep 8 4:20 pm — Sep 23 4:20 pm, Flensburg. Weather by CustomWeather, © 2019

Note: Actual official high and low records may vary slightly from our data, if they occured in-between our weather recording intervals... More about our weather records

Advertising

Flensburg Weather History for the Previous 24 Hours

Scroll right to see more
 ConditionsComfort  
Time TempWeatherWind HumidityBarometerVisibility
4:20 pm
Mon, Sep 23
63 °FBroken clouds.13 mph83%29.95 "HgN/A
3:50 pm63 °FBroken clouds.14 mph83%29.92 "HgN/A
3:20 pm64 °FBroken clouds.13 mph78%29.95 "HgN/A
2:50 pm64 °FBroken clouds.16 mph73%29.92 "HgN/A
2:20 pm64 °FPassing clouds.17 mph73%29.92 "HgN/A
1:50 pm64 °FPassing clouds.16 mph73%29.92 "HgN/A
1:20 pm64 °FPassing clouds.16 mph78%29.92 "HgN/A
12:50 pm64 °FPassing clouds.15 mph78%29.95 "HgN/A
12:20 pm63 °FScattered clouds.17 mph83%29.92 "HgN/A
11:20 am61 °FScattered clouds.15 mph88%29.95 "HgN/A
10:50 am61 °FScattered clouds.17 mph83%29.95 "HgN/A
10:20 am61 °FPartly sunny.17 mph83%29.95 "HgN/A
9:50 am59 °FPartly sunny.17 mph88%29.95 "HgN/A
9:20 am59 °FPartly sunny.20 mph88%29.92 "HgN/A
8:50 am59 °FPartly sunny.20 mph88%29.92 "HgN/A
8:20 am59 °FPartly sunny.18 mph88%29.92 "HgN/A
7:50 am59 °FPartly sunny.16 mph88%29.92 "HgN/A
7:20 am59 °FPartly sunny.14 mph88%29.92 "HgN/A
6:50 am59 °FPassing clouds.15 mph88%29.89 "HgN/A
6:20 am59 °FPassing clouds.18 mph88%29.89 "HgN/A
5:50 am57 °FPassing clouds.17 mph94%29.89 "HgN/A
5:20 am57 °FPassing clouds.16 mph94%29.89 "HgN/A
4:50 am57 °FPassing clouds.17 mph94%29.89 "HgN/A
4:20 am57 °FPassing clouds.17 mph94%29.89 "HgN/A
3:50 am57 °FPassing clouds.17 mph94%29.89 "HgN/A
3:20 am59 °FPassing clouds.17 mph88%29.89 "HgN/A
2:50 am59 °FCool.15 mph88%29.89 "HgN/A
2:20 am59 °FCool.15 mph82%29.89 "HgN/A
1:50 am59 °FCool.15 mph82%29.89 "HgN/A
1:20 am59 °FCool.16 mph82%29.89 "HgN/A
12:50 am59 °FCool.15 mph82%29.89 "HgN/A
12:20 am59 °FCool.15 mph82%29.89 "HgN/A
11:50 pm
Sun, Sep 22
61 °FCool.16 mph77%29.89 "HgN/A
11:20 pm59 °FCool.12 mph82%29.86 "HgN/A
10:50 pm61 °FCool.14 mph77%29.86 "HgN/A
10:20 pm59 °FCool.14 mph82%29.86 "HgN/A
9:50 pm61 °FCool.14 mph77%29.86 "HgN/A
9:20 pm61 °FCool.12 mph77%29.86 "HgN/A
8:50 pm61 °FCool.12 mph77%29.86 "HgN/A
8:20 pm61 °FCool.9 mph77%29.86 "HgN/A
7:50 pm59 °FClear.3 mph77%29.86 "Hg10 mi
7:20 pm63 °FClear.10 mph68%29.86 "Hg10 mi
6:50 pm63 °FSunny.13 mph68%29.86 "Hg10 mi
6:20 pm64 °FSunny.14 mph64%29.86 "Hg10 mi
5:50 pm64 °FSunny.15 mph60%29.86 "Hg10 mi
5:20 pm66 °FSunny.13 mph56%29.86 "Hg10 mi
Weather by CustomWeather, © 2019

See weather overview